User: anonymous
Location: Skalnate Pleso
(49.1889°N, 20.2450°E)
Time: 07:21:25
(UTC+02:00)
Language:

Iridium 18 - Orbit

View from above orbital plane
View from above orbital plane
View from above satellite
View from above satellite

Ground track
Ground track

The orbit data is extracted from the following two-line orbital elements,

1 24872U 97034D   14211.31605571  .00000220  00000-0  71377-4 0  9053
2 24872 086.3968 102.1542 0002247 102.2867 257.8581 14.34219306893000
Epoch (UTC): 30 July 2014 07:35:07
Eccentricity: 0.0002247
inclination: 86.3968°
perigee height: 776 km
apogee height: 779 km
right ascension of ascending node: 102.1542°
argument of perigee: 102.2867°
revolutions per day: 14.34219306
mean anomaly at epoch: 257.8581°
orbit number at epoch: 89300

The dashed part of the orbit path shows where the satellite is in the earth's shadow,  

DLR